Location: Blackfoot
(53.5367°N, 112.7800°W)
Time: 02:26:23
(UTC-07:00)

Amateur Radio Satellites - All Passes

Search period start: 19 December 2014 01:56
Search period end: 20 December 2014 01:56
Location: Blackfoot, 53.5367°N, 112.7800°W

Satellite Date Start Highest point End Downlink Frequencies (MHz)
Time Altitude Azimuth
O/OREOS (USA 219) 19 Dec 02:01:30 02:05:57 77° 117° (ESE) 02:10:27 437.305
KKS-1 19 Dec 02:16:15 02:20:40 69° 257° (WSW) 02:25:07 437.445
STARS 19 Dec 02:16:33 02:20:56 87° 74° (ENE) 02:25:22 437.465
Gurwin Techsat 1B 19 Dec 02:18:58 02:23:13 24° 90° (E) 02:27:27 435.225
BEESAT 19 Dec 02:21:29 02:25:01 20° 270° (W) 02:28:34 436.000
Oscar 19 19 Dec 02:22:40 02:27:55 80° 105° (ESE) 02:33:08 437.125/150
SO-50 19 Dec 02:24:38 02:28:22 22° 0° (N) 02:32:09 436.795
ITAMSAT 1 19 Dec 02:34:22 02:39:19 44° 98° (E) 02:44:14 435.822/435.867
AUBIESAT-1 19 Dec 02:38:59 02:42:22 19° 266° (W) 02:45:47 437.475
M-CUBED/EXP-1 PRIME 19 Dec 03:05:49 03:07:06 11° 272° (W) 03:08:23 437.505
MOZHAYETS 4 19 Dec 03:13:18 03:17:03 25° 59° (ENE) 03:20:49
AIST 1 19 Dec 03:18:38 03:22:40 37° 70° (ENE) 03:26:38
HORYU 2 19 Dec 03:31:19 03:35:32 37° 97° (E) 03:39:44 437.375
YUBILEINY 19 Dec 03:33:54 03:40:05 21° 314° (NW) 03:46:17 435.215
O/OREOS (USA 219) 19 Dec 03:42:22 03:45:54 22° 319° (NW) 03:49:27 437.305
GONETS M04 19 Dec 03:43:02 03:44:53 11° 62° (ENE) 03:46:43
AO-7 19 Dec 03:49:12 03:56:22 30° 92° (E) 04:03:28 29.400- 29.500
STARS 19 Dec 03:55:43 03:58:04 14° 273° (W) 04:00:27 437.465
KKS-1 19 Dec 03:57:27 03:58:11 10° 276° (W) 03:58:54 437.445
Gurwin Techsat 1B 19 Dec 03:58:23 04:03:41 67° 290° (WNW) 04:08:57 435.225
STRAND 1 19 Dec 04:02:28 04:03:51 11° 44° (NE) 04:05:14 437.568
Oscar 19 19 Dec 04:02:47 04:06:45 22° 305° (NW) 04:10:41 437.125/150
SO-50 19 Dec 04:05:53 04:10:13 32° 24° (NNE) 04:14:37 436.795
ITAMSAT 1 19 Dec 04:14:03 04:18:46 37° 298° (WNW) 04:23:28 435.822/435.867
JAS-2 19 Dec 04:20:36 04:24:18 17° 82° (E) 04:27:47 435.910
CUBESAT XI-V 19 Dec 04:32:38 04:35:22 16° 53° (NE) 04:38:06 437.345
PRISM 19 Dec 04:36:25 04:39:57 26° 61° (ENE) 04:43:30 437.425
MOZHAYETS 4 19 Dec 04:49:22 04:53:58 59° 259° (W) 04:58:36
AIST 1 19 Dec 04:56:31 05:00:15 29° 271° (W) 05:03:56
HORYU 2 19 Dec 05:08:05 05:12:12 35° 297° (WNW) 05:16:18 437.375
Cubesat XI-IV 19 Dec 05:18:15 05:19:54 11° 82° (E) 05:21:33 437.490
GONETS M04 19 Dec 05:31:02 05:39:14 45° 86° (E) 05:47:26
STRAND 1 19 Dec 05:37:02 05:41:54 45° 65° (ENE) 05:46:45 437.568
Gurwin Techsat 1B 19 Dec 05:39:39 05:42:46 16° 311° (NW) 05:45:53 435.225
AO-7 19 Dec 05:41:40 05:50:05 83° 294° (WNW) 05:58:27 29.400- 29.500
SO-50 19 Dec 05:46:25 05:51:19 87° 226° (SW) 05:56:14 436.795
CUTE-I 19 Dec 05:50:21 05:54:16 21° 89° (E) 05:58:11 437.470
JAS-2 19 Dec 06:04:29 06:10:32 87° 106° (ESE) 06:15:56 435.910
CUBESAT XI-V 19 Dec 06:07:27 06:12:08 80° 73° (ENE) 06:16:48 437.345
PRISM 19 Dec 06:11:14 06:15:19 46° 260° (W) 06:19:25 437.425
Cubesat XI-IV 19 Dec 06:55:49 07:01:07 62° 102° (ESE) 07:06:23 437.490
STRAND 1 19 Dec 07:16:37 07:21:14 34° 265° (W) 07:25:53 437.568
PHONESAT 2.4 19 Dec 07:24:35 07:25:21 11° 184° (S) 07:26:06 2401.200-2431.200
GONETS M04 19 Dec 07:27:15 07:35:55 57° 290° (WNW) 07:44:38
SO-50 19 Dec 07:27:52 07:31:17 19° 246° (WSW) 07:34:42 436.795
CUTE-I 19 Dec 07:29:38 07:34:58 78° 289° (WNW) 07:40:16 437.470
AO-7 19 Dec 07:35:00 07:41:55 30° 317° (NW) 07:48:48 29.400- 29.500
YUBILEINY 19 Dec 07:42:52 07:44:29 11° 24° (NNE) 07:46:05 435.215
CUBESAT XI-V 19 Dec 07:47:09 07:50:10 17° 273° (W) 07:53:11 437.345
JAS-2 19 Dec 07:50:21 07:54:52 22° 310° (NW) 07:59:04 435.910
BRITE-PL 19 Dec 08:04:45 08:06:51 13° 86° (E) 08:09:01 437.365/2234.400
AAUSAT CUBESAT 2 19 Dec 08:24:01 08:24:28 10° 83° (E) 08:24:54 437.432
ANTELSAT 19 Dec 08:24:11 08:26:31 14° 51° (NE) 08:28:52 437.575/2403.000
CANX-2 19 Dec 08:29:47 08:32:54 19° 89° (E) 08:36:00 2200.000
POLYITAN 1 19 Dec 08:33:45 08:35:02 11° 50° (NE) 08:36:20 437.675
Cubesat XI-IV 19 Dec 08:36:26 08:40:54 28° 303° (WNW) 08:45:21 437.490
NANOSAT C BR1 19 Dec 08:37:06 08:38:38 12° 51° (NE) 08:40:10 145.865
GOMX 1 19 Dec 08:38:26 08:41:47 19° 90° (E) 08:45:17 467.674
O/OREOS (USA 219) 19 Dec 08:47:11 08:50:16 18° 36° (NE) 08:53:22 437.305
QB50P1 19 Dec 08:50:12 08:52:35 15° 54° (NE) 08:54:59 145.935-145.965
HO-68 19 Dec 08:55:44 09:02:22 38° 96° (E) 09:08:55 435.675
COMPASS 1 19 Dec 08:55:49 08:59:14 23° 91° (E) 09:02:37 437.405
SEEDS 19 Dec 08:59:03 09:02:47 28° 94° (E) 09:06:28 437.485
TIGRISAT 19 Dec 08:59:08 09:02:41 24° 59° (ENE) 09:06:18 435.000
CUTE 1.7 + AOD 2 19 Dec 09:00:20 09:04:14 32° 95° (E) 09:08:07 437.475
DX 1 19 Dec 09:08:01 09:09:26 11° 85° (E) 09:10:51 434.975-435.025
DOVE 4 19 Dec 09:10:34 09:14:34 28° 94° (E) 09:18:45 437.250
CUTE-I 19 Dec 09:10:47 09:14:17 18° 310° (NW) 09:17:46 437.470
MaSat-1 19 Dec 09:16:36 09:17:34 12° 112° (ESE) 09:18:31 437.345
POPSAT HIP 1 19 Dec 09:17:27 09:20:50 24° 60° (ENE) 09:24:13 437.405
DELFI C3 19 Dec 09:22:03 09:24:46 17° 89° (E) 09:27:27 145.870
UNISAT 6 19 Dec 09:26:43 09:30:50 40° 65° (ENE) 09:35:05 437.425
AO-7 19 Dec 09:28:09 09:32:08 15° 344° (NNW) 09:36:08 29.400- 29.500
GONETS M04 19 Dec 09:29:17 09:35:10 19° 317° (NW) 09:41:03
Oscar 11 19 Dec 09:31:34 09:35:10 24° 92° (E) 09:38:44 145.826/435.025
YUBILEINY 19 Dec 09:37:51 09:45:15 30° 55° (NE) 09:52:37 435.215
CUSAT 1 19 Dec 09:39:13 09:42:42 30° 87° (E) 09:47:11 437.405
UKube-1 19 Dec 09:39:18 09:42:38 21° 92° (E) 09:45:57 .
CUBEBUG 2 19 Dec 09:40:45 09:44:21 22° 91° (E) 09:48:00 437.445
BRITE-PL 19 Dec 09:41:31 09:46:03 81° 104° (ESE) 09:50:56 437.365/2234.400
DUCHIFAT 1 19 Dec 09:45:34 09:49:29 39° 66° (ENE) 09:53:26 145.980
CINEMA 3 19 Dec 09:47:01 09:51:19 36° 96° (E) 09:55:47 145.822/145.860
BUGSAT 1 19 Dec 09:52:01 09:55:47 37° 66° (ENE) 09:59:33 437.445
VELOX 1 19 Dec 09:55:48 09:57:48 13° 86° (E) 09:59:48 145.980
AAUSAT CUBESAT 2 19 Dec 09:56:41 10:00:57 72° 103° (ESE) 10:05:11 437.432
QB50P2 19 Dec 09:57:47 10:01:53 52° 69° (ENE) 10:06:01 145.880/145.840
ZACube-1 19 Dec 09:57:54 10:01:31 23° 92° (E) 10:05:11 437.345
ANTELSAT 19 Dec 09:58:10 10:02:33 74° 72° (ENE) 10:07:06 437.575/2403.000
CANX-2 19 Dec 10:04:58 10:09:16 63° 289° (WNW) 10:13:32 2200.000
POLYITAN 1 19 Dec 10:06:01 10:10:10 61° 71° (ENE) 10:14:22 437.675
NANOSAT C BR1 19 Dec 10:09:34 10:13:44 65° 71° (ENE) 10:17:56 145.865
GOMX 1 19 Dec 10:15:47 10:20:21 70° 288° (WNW) 10:25:14 467.674
UWE-3 19 Dec 10:21:39 10:25:59 42° 98° (E) 10:30:23 435.000/436.395/437.385
DANDE 19 Dec 10:23:21 10:27:02 60° 97° (E) 10:32:03 436.750
QB50P1 19 Dec 10:23:40 10:27:53 87° 72° (ENE) 10:32:09 145.935-145.965
FUNcube-1 19 Dec 10:24:46 10:28:59 39° 97° (E) 10:33:15 145.935
O/OREOS (USA 219) 19 Dec 10:25:58 10:30:29 74° 58° (ENE) 10:35:00 437.305
COMPASS 1 19 Dec 10:31:05 10:35:14 51° 291° (WNW) 10:39:22 437.405
SEEDS 19 Dec 10:34:41 10:38:46 42° 293° (WNW) 10:42:48 437.485
TIGRISAT 19 Dec 10:34:51 10:39:09 55° 260° (W) 10:43:35 435.000
CUTE 1.7 + AOD 2 19 Dec 10:36:14 10:40:13 37° 294° (WNW) 10:44:11 437.475
AISAT 19 Dec 10:36:48 10:40:42 29° 95° (E) 10:44:35 437.250
DX 1 19 Dec 10:42:05 10:46:27 77° 105° (ESE) 10:50:48 434.975-435.025
HO-68 19 Dec 10:43:24 10:50:26 60° 297° (WNW) 10:57:24 435.675
DOVE 4 19 Dec 10:48:07 10:52:33 49° 291° (WNW) 10:57:15 437.250
MaSat-1 19 Dec 10:48:40 10:50:44 30° 311° (NW) 10:52:47 437.345
CUBEBUG 1 19 Dec 10:48:47 10:51:38 17° 89° (E) 10:54:28 437.445
POPSAT HIP 1 19 Dec 10:52:23 10:56:29 51° 260° (W) 11:00:38 437.405
DELFI C3 19 Dec 10:56:22 11:00:30 67° 288° (WNW) 11:04:35 145.870
50 SAT 19 Dec 10:58:36 11:02:32 40° 98° (E) 11:06:27 437.505
UNISAT 6 19 Dec 11:03:51 11:07:45 31° 266° (W) 11:11:46 437.425
Oscar 11 19 Dec 11:07:21 11:11:35 49° 292° (WNW) 11:15:48 145.826/435.025
HUMSAT D 19 Dec 11:09:22 11:13:39 62° 102° (ESE) 11:17:58 437.325/437.525
UKube-1 19 Dec 11:14:53 11:19:09 56° 291° (WNW) 11:23:23 .
CUBEBUG 2 19 Dec 11:16:54 11:21:23 60° 290° (WNW) 11:26:00 437.445
AO-7 19 Dec 11:18:04 11:21:35 13° 11° (NNE) 11:25:07 29.400- 29.500
BRITE-PL 19 Dec 11:21:04 11:24:10 19° 302° (WNW) 11:27:23 437.365/2234.400
CUSAT 1 19 Dec 11:21:49 11:25:37 38° 297° (WNW) 11:30:41 437.405
DUCHIFAT 1 19 Dec 11:21:49 11:25:28 28° 266° (W) 11:29:09 145.980
CINEMA 3 19 Dec 11:24:18 11:28:33 37° 295° (WNW) 11:32:58 145.822/145.860
BUGSAT 1 19 Dec 11:27:50 11:31:23 28° 265° (W) 11:34:57 437.445
ESTCUBE 1 19 Dec 11:28:00 11:32:15 39° 97° (E) 11:36:28 437.505/2401.250
RS-15 19 Dec 11:29:28 11:38:20 30° 105° (ESE) 11:47:13 29.354- 29.394
VELOX 1 19 Dec 11:30:40 11:35:07 85° 106° (ESE) 11:39:33 145.980
AAUSAT CUBESAT 2 19 Dec 11:33:14 11:36:11 19° 303° (WNW) 11:39:07 437.432
ZACube-1 19 Dec 11:33:49 11:38:12 54° 290° (WNW) 11:42:39 437.345
YUBILEINY 19 Dec 11:34:33 11:43:18 88° 261° (W) 11:52:01 435.215
QB50P2 19 Dec 11:34:48 11:38:07 22° 268° (W) 11:41:26 145.880/145.840
ANTELSAT 19 Dec 11:37:02 11:39:56 17° 272° (W) 11:42:53 437.575/2403.000
CANX-2 19 Dec 11:42:49 11:44:24 12° 309° (NW) 11:45:58 2200.000
POLYITAN 1 19 Dec 11:43:32 11:46:32 19° 270° (W) 11:49:33 437.675
NANOSAT C BR1 19 Dec 11:47:13 11:50:04 18° 271° (W) 11:52:56 145.865
GOMX 1 19 Dec 11:55:30 11:57:49 14° 307° (NW) 12:00:12 467.674
UWE-3 19 Dec 11:58:27 12:02:27 31° 297° (WNW) 12:06:30 435.000/436.395/437.385
FUNcube-1 19 Dec 12:01:17 12:05:18 33° 296° (WNW) 12:09:22 145.935
SPROUT 19 Dec 12:02:02 12:05:29 23° 92° (E) 12:08:55 437.525
QB50P1 19 Dec 12:02:23 12:04:25 13° 273° (W) 12:06:29 145.935-145.965
TISAT 1 19 Dec 12:03:19 12:06:47 24° 93° (E) 12:10:14 437.305
O/OREOS (USA 219) 19 Dec 12:06:18 12:09:23 18° 258° (WSW) 12:12:28 437.305
Oscar 19 19 Dec 12:07:18 12:12:04 40° 63° (ENE) 12:16:53 437.125/150
DANDE 19 Dec 12:08:08 12:11:17 21° 308° (NW) 12:15:12 436.750
Gurwin Techsat 1B 19 Dec 12:09:19 12:12:23 16° 48° (NE) 12:15:26 435.225
AISAT 19 Dec 12:13:17 12:17:28 42° 294° (WNW) 12:21:38 437.250
DX 1 19 Dec 12:19:15 12:22:13 18° 304° (NW) 12:25:11 434.975-435.025
ITAMSAT 1 19 Dec 12:20:48 12:24:58 25° 56° (NE) 12:29:07 435.822/435.867
CUBEBUG 1 19 Dec 12:24:10 12:28:31 71° 288° (WNW) 12:32:49 437.445
DOVE 4 19 Dec 12:28:49 12:29:24 10° 311° (NW) 12:30:00 437.250
HO-68 19 Dec 12:32:02 12:36:52 20° 320° (NW) 12:41:41 435.675
DELFI C3 19 Dec 12:33:33 12:35:00 12° 308° (NW) 12:36:28 145.870
50 SAT 19 Dec 12:34:05 12:37:39 28° 297° (WNW) 12:41:14 437.505
BEESAT 19 Dec 12:38:08 12:39:38 11° 83° (E) 12:41:07 436.000
HUMSAT D 19 Dec 12:45:51 12:49:07 21° 301° (WNW) 12:52:24 437.325/437.525
UKube-1 19 Dec 12:53:15 12:54:26 11° 311° (NW) 12:55:37 .
CUBEBUG 2 19 Dec 12:55:31 12:57:16 12° 309° (NW) 12:59:03 437.445
HORYU 2 19 Dec 13:02:02 13:04:26 14° 52° (NE) 13:06:51 437.375
ESTCUBE 1 19 Dec 13:05:03 13:09:05 33° 297° (WNW) 13:13:06 437.505/2401.250
AO-7 19 Dec 13:05:11 13:11:36 26° 38° (NE) 13:18:01 29.400- 29.500
VELOX 1 19 Dec 13:08:17 13:11:10 17° 305° (NW) 13:14:03 145.980
ZACube-1 19 Dec 13:12:29 13:13:41 11° 310° (NW) 13:14:53 437.345
YUBILEINY 19 Dec 13:32:22 13:38:58 25° 284° (WNW) 13:45:33 435.215
GONETS M04 19 Dec 13:36:47 13:39:48 12° 28° (NNE) 13:42:48
SPROUT 19 Dec 13:37:41 13:41:52 51° 291° (WNW) 13:46:01 437.525
RS-15 19 Dec 13:38:16 13:49:11 85° 131° (SE) 14:00:18 29.354- 29.394
TISAT 1 19 Dec 13:38:47 13:42:51 47° 292° (WNW) 13:46:54 437.305
PCSat 19 Dec 13:45:47 13:49:36 20° 108° (ESE) 13:53:26 145.827
Gurwin Techsat 1B 19 Dec 13:46:12 13:51:27 66° 69° (ENE) 13:56:44 435.225
Oscar 19 19 Dec 13:46:37 13:51:26 40° 263° (W) 13:56:19 437.125/150
ITUPSAT 1 19 Dec 13:48:20 13:52:53 42° 98° (E) 13:57:24 437.325
SWISSCUBE 19 Dec 13:48:23 13:53:00 45° 99° (E) 13:57:34 437.505
BEESAT 3 19 Dec 13:52:21 13:55:39 24° 118° (ESE) 13:59:00 437.485
AIST 2 19 Dec 13:53:30 13:55:20 13° 111° (ESE) 13:57:11 435.215
ITAMSAT 1 19 Dec 13:58:53 14:04:04 69° 256° (WSW) 14:09:15 435.822/435.867
CUBEBUG 1 19 Dec 14:02:09 14:04:09 13° 308° (NW) 14:06:09 437.445
KKS-1 19 Dec 14:02:14 14:04:55 16° 88° (E) 14:07:36 437.445
STARS 19 Dec 14:02:39 14:03:47 11° 84° (E) 14:04:54 437.465
BEESAT 19 Dec 14:13:37 14:18:25 69° 103° (ESE) 14:23:09 436.000
AUBIESAT-1 19 Dec 14:14:21 14:18:07 26° 98° (E) 14:21:38 437.475
BEESAT 2 19 Dec 14:30:14 14:34:10 43° 125° (SE) 14:38:10 435.950
HORYU 2 19 Dec 14:35:55 14:40:23 75° 72° (ENE) 14:44:54 437.375
M-CUBED/EXP-1 PRIME 19 Dec 14:38:41 14:43:06 45° 104° (ESE) 14:47:09 437.505
JAS-2 19 Dec 14:38:42 14:44:16 24° 51° (NE) 14:49:26 435.910
AO-7 19 Dec 14:54:52 15:03:06 69° 62° (ENE) 15:11:25 29.400- 29.500
ITUPSAT 1 19 Dec 15:26:25 15:30:43 34° 298° (WNW) 15:34:59 437.325
SWISSCUBE 19 Dec 15:26:32 15:30:45 31° 299° (WNW) 15:34:55 437.505
PCSat 19 Dec 15:26:53 15:32:20 88° 129° (SE) 15:37:48 145.827
Gurwin Techsat 1B 19 Dec 15:27:36 15:31:53 24° 269° (W) 15:36:12 435.225
AIST 2 19 Dec 15:28:57 15:33:12 70° 130° (SE) 15:37:31 435.215
BEESAT 3 19 Dec 15:29:24 15:33:31 65° 318° (NW) 15:37:42 437.485
GONETS M04 19 Dec 15:32:31 15:40:20 34° 58° (ENE) 15:48:03
STARS 19 Dec 15:36:38 15:41:05 72° 104° (ESE) 15:45:32 437.465
KKS-1 19 Dec 15:37:40 15:42:10 82° 287° (WNW) 15:46:39 437.445
CUTE-I 19 Dec 15:41:37 15:44:25 15° 47° (NE) 15:47:13 437.470
ITAMSAT 1 19 Dec 15:42:24 15:44:33 12° 277° (W) 15:46:42 435.822/435.867
AUBIESAT-1 19 Dec 15:48:55 15:53:22 50° 299° (WNW) 15:57:27 437.475
RS-15 19 Dec 15:51:59 16:02:37 53° 341° (NNW) 16:13:33 29.354- 29.394
BEESAT 19 Dec 15:52:10 15:55:51 23° 303° (WNW) 15:59:31 436.000
ISS 19 Dec 15:53:05 15:56:06 33° 157° (SSE) 15:59:06 145.825
AIST 1 19 Dec 15:56:30 15:59:12 16° 83° (E) 16:01:54
BEESAT 2 19 Dec 16:08:32 16:12:29 41° 326° (NW) 16:16:30 435.950
M-CUBED/EXP-1 PRIME 19 Dec 16:13:54 16:17:58 31° 305° (NW) 16:21:46 437.505
HORYU 2 19 Dec 16:14:39 16:17:36 17° 271° (W) 16:20:34 437.375
JAS-2 19 Dec 16:21:01 16:28:35 80° 71° (ENE) 16:35:23 435.910
MOZHAYETS 4 19 Dec 16:38:42 16:42:22 23° 91° (E) 16:46:01
Cubesat XI-IV 19 Dec 16:45:12 16:50:01 36° 61° (ENE) 16:54:51 437.490
AO-7 19 Dec 16:48:53 16:56:28 38° 264° (W) 17:04:09 29.400- 29.500
MaSat-1 19 Dec 17:07:41 17:09:13 16° 43° (NE) 17:10:48 437.345
AIST 2 19 Dec 17:08:20 17:12:12 31° 332° (NNW) 17:16:06 435.215
BEESAT 3 19 Dec 17:09:05 17:12:26 23° 341° (NNW) 17:15:48 437.485
PCSat 19 Dec 17:11:36 17:16:24 31° 332° (NNW) 17:21:13 145.827
STARS 19 Dec 17:13:57 17:17:08 20° 303° (WNW) 17:20:20 437.465
KKS-1 19 Dec 17:15:35 17:18:10 15° 307° (NW) 17:20:45 437.445
CUTE-I 19 Dec 17:18:17 17:23:31 60° 68° (ENE) 17:28:45 437.470
AUBIESAT-1 19 Dec 17:25:29 17:27:18 12° 320° (NW) 17:29:05 437.475
ISS 19 Dec 17:29:09 17:32:25 62° 177° (S) 17:35:41 145.825
GONETS M04 19 Dec 17:29:20 17:38:09 78° 263° (W) 17:46:50
AIST 1 19 Dec 17:31:58 17:36:21 71° 283° (WNW) 17:40:43
HO-68 19 Dec 17:46:41 17:51:20 19° 39° (NE) 17:55:59 435.675
BEESAT 2 19 Dec 17:48:41 17:51:45 19° 349° (N) 17:54:50 435.950
PRISM 19 Dec 17:48:49 17:51:34 17° 89° (E) 17:54:16 437.425
CUBESAT XI-V 19 Dec 17:59:30 18:01:42 13° 85° (E) 18:03:54 437.345
RS-15 19 Dec 18:06:50 18:17:30 50° 14° (NNE) 18:28:32 29.354- 29.394
JAS-2 19 Dec 18:07:57 18:14:12 28° 270° (W) 18:20:02 435.910
MOZHAYETS 4 19 Dec 18:15:23 18:19:58 58° 290° (WNW) 18:24:30
Cubesat XI-IV 19 Dec 18:24:56 18:30:03 46° 261° (W) 18:35:11 437.490
CUSAT 1 19 Dec 18:26:40 18:31:25 19° 50° (NE) 18:36:41 437.405
MaSat-1 19 Dec 18:40:34 18:42:41 30° 241° (WSW) 18:44:54 437.345
AIST 2 19 Dec 18:48:57 18:52:01 19° 356° (N) 18:55:06 435.215
BEESAT 3 19 Dec 18:49:03 18:51:57 18° 5° (N) 18:54:50 437.485
PCSat 19 Dec 18:57:33 19:01:29 20° 357° (N) 19:05:24 145.827
CUTE-I 19 Dec 18:59:30 19:03:58 27° 268° (W) 19:08:28 437.470
ISS 19 Dec 19:05:39 19:08:49 45° 197° (SSW) 19:11:58 145.825
DANDE 19 Dec 19:12:47 19:18:38 28° 58° (ENE) 19:25:27 436.750
AIST 1 19 Dec 19:13:10 19:14:53 12° 304° (NW) 19:16:36
STRAND 1 19 Dec 19:19:54 19:24:53 51° 100° (E) 19:29:51 437.568
AAUSAT CUBESAT 2 19 Dec 19:20:14 19:23:06 18° 57° (ENE) 19:25:59 437.432
CINEMA 3 19 Dec 19:21:45 19:23:18 12° 50° (NE) 19:24:52 145.822/145.860
BRITE-PL 19 Dec 19:21:59 19:25:26 26° 62° (ENE) 19:28:55 437.365/2234.400
PRISM 19 Dec 19:23:24 19:27:34 68° 289° (WNW) 19:31:41 437.425
GONETS M04 19 Dec 19:27:25 19:33:33 22° 287° (WNW) 19:39:40
BEESAT 2 19 Dec 19:28:15 19:31:23 20° 13° (NNE) 19:34:31 435.950
CANX-2 19 Dec 19:28:57 19:32:43 31° 64° (ENE) 19:36:31 2200.000
HO-68 19 Dec 19:30:43 19:37:41 56° 62° (ENE) 19:44:40 435.675
CUBESAT XI-V 19 Dec 19:35:16 19:39:55 83° 104° (ESE) 19:44:32 437.345
UWE-3 19 Dec 19:51:52 19:53:48 13° 52° (NE) 19:55:46 435.000/436.395/437.385
GOMX 1 19 Dec 19:53:22 19:57:09 36° 65° (ENE) 20:01:02 467.674
COMPASS 1 19 Dec 19:53:32 19:57:24 35° 65° (ENE) 20:01:18 437.405
FUNcube-1 19 Dec 19:54:11 19:55:44 12° 51° (NE) 19:57:18 145.935
MOZHAYETS 4 19 Dec 19:54:32 19:56:17 12° 311° (NW) 19:58:02
SEEDS 19 Dec 19:57:28 20:01:31 44° 68° (ENE) 20:05:36 437.485
CUTE 1.7 + AOD 2 19 Dec 19:59:26 20:03:35 51° 69° (ENE) 20:07:47 437.475
AISAT 19 Dec 20:08:10 20:09:37 12° 49° (NE) 20:11:05 437.250
CUSAT 1 19 Dec 20:08:51 20:15:53 58° 70° (ENE) 20:24:07 437.405
DX 1 19 Dec 20:08:53 20:12:23 24° 59° (ENE) 20:15:52 434.975-435.025
DELFI C3 19 Dec 20:16:38 20:20:04 26° 62° (ENE) 20:23:31 145.870
RS-15 19 Dec 20:20:09 20:31:21 85° 44° (NE) 20:43:02 29.354- 29.394
50 SAT 19 Dec 20:21:51 20:22:36 10° 51° (NE) 20:23:21 437.505
DOVE 4 19 Dec 20:23:06 20:27:07 51° 69° (ENE) 20:31:16 437.250
BEESAT 3 19 Dec 20:27:33 20:31:18 30° 28° (NNE) 20:35:02 437.485
AIST 2 19 Dec 20:28:27 20:31:59 24° 20° (NNE) 20:35:30 435.215
Oscar 11 19 Dec 20:32:23 20:36:29 42° 67° (ENE) 20:40:36 145.826/435.025
HUMSAT D 19 Dec 20:34:11 20:36:46 16° 56° (NE) 20:39:22 437.325/437.525
UKube-1 19 Dec 20:40:19 20:44:23 41° 66° (ENE) 20:48:28 .
PCSat 19 Dec 20:42:06 20:46:40 26° 23° (NNE) 20:51:14 145.827
ISS 19 Dec 20:42:47 20:44:51 16° 216° (SW) 20:46:54 145.825
CUBEBUG 2 19 Dec 20:45:35 20:49:27 36° 65° (ENE) 20:53:27 437.445
AAUSAT CUBESAT 2 19 Dec 20:54:05 20:58:18 74° 257° (WSW) 21:02:34 437.432
CINEMA 3 19 Dec 20:55:32 20:59:41 66° 71° (ENE) 21:03:59 145.822/145.860
DANDE 19 Dec 20:55:47 21:02:52 88° 77° (ENE) 21:11:25 436.750
VELOX 1 19 Dec 20:59:14 21:02:55 27° 60° (ENE) 21:06:37 145.980
STRAND 1 19 Dec 20:59:27 21:03:54 31° 300° (WNW) 21:08:20 437.568
ESTCUBE 1 19 Dec 20:59:41 21:02:13 15° 52° (NE) 21:04:44 437.505/2401.250
BRITE-PL 19 Dec 20:59:54 21:03:51 42° 262° (W) 21:07:50 437.365/2234.400
ZACube-1 19 Dec 21:00:23 21:04:17 38° 66° (ENE) 21:08:17 437.345
PRISM 19 Dec 21:00:43 21:02:21 12° 309° (NW) 21:03:58 437.425
CANX-2 19 Dec 21:04:34 21:08:35 39° 263° (W) 21:12:39 2200.000
BEESAT 2 19 Dec 21:06:31 21:10:35 44° 36° (NE) 21:14:38 435.950
CUBESAT XI-V 19 Dec 21:13:41 21:16:49 18° 305° (NW) 21:19:56 437.345
HO-68 19 Dec 21:18:56 21:25:39 42° 263° (W) 21:32:25 435.675
UWE-3 19 Dec 21:25:24 21:29:36 72° 72° (ENE) 21:33:55 435.000/436.395/437.385
FUNcube-1 19 Dec 21:27:06 21:31:16 65° 71° (ENE) 21:35:33 145.935
COMPASS 1 19 Dec 21:29:21 21:33:10 32° 265° (W) 21:37:02 437.405
GOMX 1 19 Dec 21:31:46 21:35:25 29° 266° (W) 21:39:08 467.674
SEEDS 19 Dec 21:33:56 21:37:32 26° 267° (W) 21:41:10 437.485
CUTE 1.7 + AOD 2 19 Dec 21:36:25 21:39:48 23° 269° (W) 21:43:14 437.475
AISAT 19 Dec 21:41:03 21:45:23 58° 69° (ENE) 21:49:45 437.250
DX 1 19 Dec 21:44:06 21:48:22 54° 259° (WSW) 21:52:39 434.975-435.025
ANTELSAT 19 Dec 21:46:06 21:47:35 11° 83° (E) 21:49:05 437.575/2403.000
SO-50 19 Dec 21:47:27 21:51:34 34° 121° (ESE) 21:55:49 436.795
CUBEBUG 1 19 Dec 21:50:59 21:54:51 32° 63° (ENE) 21:58:44 437.445
DELFI C3 19 Dec 21:51:13 21:55:10 44° 261° (W) 21:59:10 145.870
CUSAT 1 19 Dec 21:52:10 21:58:56 44° 268° (W) 22:06:42 437.405
50 SAT 19 Dec 21:53:02 21:57:01 60° 71° (ENE) 22:01:03 437.505
DOVE 4 19 Dec 22:02:05 22:05:16 21° 269° (W) 22:08:31 437.250
BEESAT 3 19 Dec 22:05:40 22:09:51 70° 229° (SW) 22:13:59 437.485
AIST 2 19 Dec 22:07:00 22:11:20 67° 42° (NE) 22:15:36 435.215
HUMSAT D 19 Dec 22:07:52 22:12:01 83° 256° (WSW) 22:16:16 437.325/437.525
Oscar 11 19 Dec 22:09:01 22:12:47 28° 266° (W) 22:16:36 145.826/435.025
UKube-1 19 Dec 22:16:54 22:20:41 29° 265° (W) 22:24:29 .
TIGRISAT 19 Dec 22:20:35 22:24:14 22° 91° (E) 22:27:54 435.000
CUBEBUG 2 19 Dec 22:22:30 22:26:15 31° 266° (W) 22:30:07 437.445
PCSat 19 Dec 22:25:33 22:31:01 70° 47° (NE) 22:36:25 145.827
POPSAT HIP 1 19 Dec 22:32:15 22:35:09 18° 89° (E) 22:38:03 437.405
RS-15 19 Dec 22:32:54 22:42:49 39° 250° (WSW) 22:53:08 29.354- 29.394
ESTCUBE 1 19 Dec 22:33:51 22:38:24 77° 73° (ENE) 22:42:57 437.505/2401.250
AAUSAT CUBESAT 2 19 Dec 22:33:59 22:34:46 10° 276° (W) 22:35:34 437.432
CINEMA 3 19 Dec 22:34:37 22:37:25 17° 272° (W) 22:40:17 145.822/145.860
VELOX 1 19 Dec 22:35:01 22:39:19 49° 260° (W) 22:43:37 145.980
ZACube-1 19 Dec 22:37:03 22:40:46 30° 266° (W) 22:44:35 437.345
DANDE 19 Dec 22:40:01 22:45:52 27° 275° (W) 22:52:30 436.750
BEESAT 2 19 Dec 22:44:55 22:48:50 38° 237° (WSW) 22:52:43 435.950
UNISAT 6 19 Dec 22:48:51 22:53:14 37° 96° (E) 22:57:37 437.425
YUBILEINY 19 Dec 22:49:27 22:55:55 24° 75° (ENE) 23:02:22 435.215
DUCHIFAT 1 19 Dec 23:00:10 23:03:57 30° 95° (E) 23:07:43 145.980
TISAT 1 19 Dec 23:01:57 23:05:54 42° 67° (ENE) 23:09:53 437.305
SPROUT 19 Dec 23:02:22 23:06:21 39° 66° (ENE) 23:10:22 437.525
BUGSAT 1 19 Dec 23:03:39 23:07:06 26° 94° (E) 23:10:32 437.445
UWE-3 19 Dec 23:04:04 23:06:43 16° 273° (W) 23:09:24 435.000/436.395/437.385
FUNcube-1 19 Dec 23:05:13 23:08:06 18° 271° (W) 23:11:03 145.935
QB50P2 19 Dec 23:12:55 23:16:58 40° 98° (E) 23:21:00 145.880/145.840
AISAT 19 Dec 23:19:01 23:22:24 21° 269° (W) 23:25:47 437.250
ANTELSAT 19 Dec 23:20:33 23:25:15 69° 103° (ESE) 23:29:59 437.575/2403.000
POLYITAN 1 19 Dec 23:21:22 23:25:32 48° 100° (E) 23:29:42 437.675
NANOSAT C BR1 19 Dec 23:24:24 23:28:33 50° 100° (E) 23:32:42 145.865
SWISSCUBE 19 Dec 23:25:19 23:28:48 20° 55° (NE) 23:32:17 437.505
ITUPSAT 1 19 Dec 23:25:35 23:28:57 19° 54° (NE) 23:32:19 437.325
CUBEBUG 1 19 Dec 23:27:06 23:31:11 38° 263° (W) 23:35:17 437.445
SO-50 19 Dec 23:27:23 23:31:57 56° 322° (NW) 23:36:41 436.795
50 SAT 19 Dec 23:29:52 23:32:39 18° 270° (W) 23:35:28 437.505
AUBIESAT-1 19 Dec 23:35:14 23:38:50 21° 49° (NE) 23:42:24 437.475
QB50P1 19 Dec 23:38:36 23:42:52 69° 103° (ESE) 23:47:07 145.935-145.965
CUSAT 1 19 Dec 23:38:51 23:40:33 11° 287° (WNW) 23:42:19 437.405
BEESAT 3 19 Dec 23:45:37 23:47:17 12° 249° (WSW) 23:48:58 437.485
AIST 2 19 Dec 23:46:10 23:49:38 24° 242° (WSW) 23:53:03 435.215
HUMSAT D 19 Dec 23:47:08 23:48:34 12° 275° (W) 23:50:01 437.325/437.525
BEESAT 19 Dec 23:49:44 23:53:48 28° 60° (ENE) 23:57:52 436.000
TIGRISAT 19 Dec 23:56:45 00:01:22 62° 290° (WNW) 00:06:01 435.000
M-CUBED/EXP-1 PRIME 19 Dec 23:59:18 00:03:35 31° 54° (NE) 00:07:52 437.505
POPSAT HIP 1 20 Dec 00:07:16 00:11:30 67° 289° (WNW) 00:15:44 437.405
PCSat 20 Dec 00:09:29 00:14:02 28° 248° (WSW) 00:18:34 145.827
ESTCUBE 1 20 Dec 00:12:54 00:15:50 17° 272° (W) 00:18:47 437.505/2401.250
UNISAT 6 20 Dec 00:25:44 00:30:01 37° 296° (WNW) 00:34:20 437.425
DUCHIFAT 1 20 Dec 00:35:58 00:39:54 38° 294° (WNW) 00:43:50 145.980
TISAT 1 20 Dec 00:38:18 00:41:54 27° 266° (W) 00:45:30 437.305
SPROUT 20 Dec 00:38:49 00:42:34 29° 265° (W) 00:46:20 437.525
BUGSAT 1 20 Dec 00:38:57 00:42:45 40° 293° (WNW) 00:46:32 437.445
YUBILEINY 20 Dec 00:42:45 00:51:30 85° 99° (E) 01:00:16 435.215
O/OREOS (USA 219) 20 Dec 00:45:29 00:48:59 23° 104° (ESE) 00:52:31 437.305
QB50P2 20 Dec 00:49:05 00:52:48 29° 297° (WNW) 00:56:30 145.880/145.840
POLYITAN 1 20 Dec 00:57:45 01:01:17 26° 299° (WNW) 01:04:50 437.675
ANTELSAT 20 Dec 00:58:04 01:01:39 22° 302° (WNW) 01:05:15 437.575/2403.000
NANOSAT C BR1 20 Dec 01:00:46 01:04:12 24° 299° (WNW) 01:07:39 145.865
SWISSCUBE 20 Dec 01:01:21 01:06:09 79° 255° (WSW) 01:11:00 437.505
ITUPSAT 1 20 Dec 01:01:28 01:06:17 85° 254° (WSW) 01:11:08 437.325
STARS 20 Dec 01:04:55 01:08:20 23° 58° (ENE) 01:11:47 437.465
KKS-1 20 Dec 01:06:20 01:10:13 31° 62° (ENE) 01:14:08 437.445
AUBIESAT-1 20 Dec 01:08:19 01:13:12 89° 68° (ENE) 01:18:07 437.475
SO-50 20 Dec 01:09:31 01:13:26 25° 346° (NNW) 01:17:25 436.795
QB50P1 20 Dec 01:15:19 01:18:21 19° 302° (WNW) 01:21:23 145.935-145.965
BEESAT 20 Dec 01:26:44 01:31:26 53° 259° (W) 01:36:09 436.000
M-CUBED/EXP-1 PRIME 20 Dec 01:33:34 01:38:21 55° 254° (WSW) 01:43:12 437.505
TIGRISAT 20 Dec 01:35:12 01:37:17 13° 310° (NW) 01:39:23 435.000
POPSAT HIP 1 20 Dec 01:44:58 01:46:39 12° 308° (NW) 01:48:20 437.405
